Temperature
13 13 13 13 13 12 12 12 12 12 12 11 11 11 11 11 10 10 10 10 10 10 10 10 10 10 10 10 10 9 9 9 9 9 9 10 10 10 10 10 10 10 10
13 13 13 12 12 12 12 12 12 12 11 11 11 11 11 10 10 10 10 10 10 10 10 10 10 10 9 9 9 9 9 9 9 9 9 9 9 9 9 10 10 10 10
13 13 12 12 12 12 12 12 11 11 11 11 11 11 10 10 10 10 10 10 10 10 10 9 9 9 9 9 9 9 9 9 9 9 9 9 9 9 9 9 9 9 9
13 13 12 12 12 12 12 11 11 11 11 11 11 10 10 10 10 10 10 10 10 9 9 9 9 9 9 9 9 9 9 9 9 9 9 9 9 9 9 9 9 9 9
13 12 12 12 12 12 11 11 11 11 11 11 10 10 10 10 10 9 9 9 9 9 9 9 9 9 9 9 9 8 8 8 8 8 8 8 8 8 8 8 8 8 8
12 12 12 12 11 11 11 11 11 11 10 10 10 10 10 10 9 9 9 9 9 9 9 9 8 8 8 8 8 8 8 8 8 8 8 8 8 8 8 8 8 8 8
12 12 12 11 11 11 11 11 10 10 10 10 10 10 10 9 9 9 9 9 9 8 8 8 8 8 8 8 8 8 8 7 7 7 7 7 7 7 7 7 7 7 7
12 11 11 11 11 11 10 10 10 10 10 9 9 9 9 9 9 9 8 8 8 8 8 8 7 7 7 7 7 7 7 7 7 7 7 7 7 7 7 7 7 7 7
11 11 11 11 10 10 10 10 10 9 9 9 9 9 9 8 8 8 8 8 8 7 7 7 7 7 7 7 7 7 7 7 7 7 6 6 6 6 6 6 6 6 6
11 10 10 10 10 10 10 9 9 9 9 9 8 8 8 8 8 8 7 7 7 7 7 7 6 6 6 6 6 6 6 6 6 6 6 6 6 6 6 6 6 5 5
10 10 10 10 9 9 9 9 9 9 9 8 8 8 8 7 7 7 7 7 6 6 6 6 6 6 6 6 6 6 6 6 5 5 6 5 6 6 6 5 5 5 5
10 9 9 9 9 9 9 8 8 8 8 8 8 7 7 7 7 6 6 6 6 6 6 6 6 5 5 5 5 5 5 5 5 5 5 5 5 5 5 5 5 5 5
9 9 9 9 8 8 8 8 8 8 7 7 7 7 7 6 6 6 6 6 5 5 5 5 5 5 5 5 5 5 5 5 4 4 4 5 5 5 5 5 5 5 4
9 8 8 8 8 8 7 7 7 7 7 7 6 6 6 6 6 5 5 5 5 5 5 5 5 5 4 4 4 4 4 4 4 4 4 4 4 4 4 4 4 4 4
8 8 8 7 7 7 7 7 7 7 7 6 6 6 5 5 5 5 5 5 5 4 4 4 4 4 4 4 4 4 4 4 3 3 3 3 3 3 3 3 3 3 3
8 7 7 7 6 6 6 6 6 6 6 6 5 5 5 5 4 4 4 4 4 4 4 3 3 3 3 3 3 3 3 3 3 3 3 3 3 3 3 3 3 3 3
7 7 7 6 6 6 5 5 5 5 5 5 5 4 4 4 4 4 4 4 3 3 3 3 3 2 2 2 2 2 2 2 2 2 2 2 2 2 2 3 3 2 2
6 6 6 6 6 5 5 5 5 5 4 4 4 4 4 3 3 3 3 3 3 2 2 2 2 2 2 2 2 2 2 2 2 2 2 2 2 2 2 2 2 2 2
6 6 5 5 5 5 5 4 4 4 4 4 3 3 3 3 3 2 2 2 2 2 2 1 1 1 1 1 1 1 1 2 2 2 2 2 2 2 2 2 2 2 2
5 5 5 5 5 4 4 4 4 3 3 3 3 3 2 2 2 2 2 2 1 1 1 1 1 1 1 1 1 1 1 1 1 1 1 1 1 1 1 1 1 1 1
4 4 4 4 4 3 3 3 3 3 3 2 2 2 2 1 1 1 1 1 1 1 1 1 1 1 1 1 0 0 0 1 1 1 1 1 1 1 1 1 1 1 1
4 4 4 3 3 3 3 3 2 2 2 2 1 1 1 1 1 1 1 1 1 0 0 0 0 0 0 0 0 0 0 0 0 0 0 0 0 1 1 1 1 1 0
3 3 3 3 3 3 2 2 2 2 1 1 1 1 0 0 0 0 0 0 0 0 0 0 0 0 0 -0 -0 -0 -0 -0 -0 -0 -0 -0 -0 0 0 0 0 0 0
3 3 3 3 2 2 2 2 1 1 1 1 0 0 0 0 0 0 -0 -0 -0 -0 -0 -0 -0 -0 -0 -0 -0 -0 -1 -1 -1 -1 -0 -0 -0 -0 -0 -0 -0 -0 -0
2 2 2 2 2 1 1 1 1 1 1 0 0 -0 -0 -0 -0 -0 -0 -0 -0 -0 -1 -0 -0 -0 -0 -0 -1 -1 -1 -1 -1 -1 -1 -1 -1 -1 -1 -1 -1 -1 -0
2 2 2 1 1 1 1 1 0 0 0 -0 -0 -0 -0 -1 -1 -1 -1 -1 -1 -1 -1 -1 -1 -1 -1 -1 -1 -1 -1 -1 -1 -1 -1 -1 -1 -1 -1 -1 -1 -1 -1
Wind_Speed
6 5 5 5 4 4 4 4 4 3 4 4 3 3 2 2 1 1 1 1 1 1 1 1 2 2 1 1 1 1 1 2 3 3 2 2 1 2 5 5 4 4 5
6 5 5 5 4 4 4 4 4 3 3 3 4 3 3 2 2 2 2 1 1 2 2 2 3 2 2 2 1 1 2 2 3 3 2 2 2 2 3 3 4 4 4
5 5 5 4 5 5 5 4 4 4 3 3 3 3 3 3 2 2 2 2 2 2 2 2 3 2 3 2 2 2 2 2 2 2 2 2 2 1 2 3 3 3 4
5 5 5 5 5 5 4 4 4 4 4 3 3 3 3 2 2 2 2 2 1 2 2 2 3 3 3 3 2 2 1 1 1 1 2 2 2 1 0 1 3 3 3
6 6 6 5 4 4 4 4 3 3 3 3 3 2 1 1 2 2 2 1 1 1 1 2 2 2 2 2 1 1 1 1 1 1 1 1 1 1 1 1 1 2 2
6 6 5 4 4 4 4 4 3 3 3 3 3 2 1 1 2 2 2 2 1 1 1 2 2 2 2 3 2 1 1 1 2 2 2 2 2 2 1 1 1 1 2
5 5 5 4 4 4 4 4 4 3 3 3 2 2 1 2 2 2 2 2 2 1 1 2 2 2 3 1 2 4 3 2 2 2 3 3 3 3 2 1 1 1 2
5 4 4 4 4 4 4 4 3 3 3 3 2 2 1 2 1 1 1 1 1 1 1 2 1 2 2 0 0 2 2 3 3 2 3 3 3 3 3 2 2 1 1
5 5 5 5 5 5 4 4 3 3 3 2 2 2 2 2 1 0 1 1 1 1 1 1 1 1 2 1 1 1 2 3 4 3 3 3 3 1 1 2 1 1 1
6 5 5 5 6 6 5 4 2 3 3 3 2 2 2 2 1 0 1 1 1 0 1 2 2 2 2 2 1 1 2 3 3 3 3 4 3 1 0 1 2 2 1
4 4 4 4 5 5 4 3 3 3 2 2 2 0 1 1 1 1 1 1 1 1 1 1 2 3 3 3 2 1 3 3 1 1 1 2 2 1 1 1 1 2 2
3 3 4 4 4 3 4 3 3 3 3 2 2 1 1 1 1 1 1 0 1 1 1 1 2 3 3 4 3 3 3 2 1 1 1 2 2 2 2 2 2 2 3
3 3 3 3 3 3 4 4 3 3 3 3 2 1 1 1 1 1 1 1 1 1 1 1 2 3 4 4 4 4 3 1 1 1 2 3 3 3 2 1 1 1 2
3 3 3 3 3 2 3 4 4 4 3 3 3 2 1 1 1 1 1 0 1 1 1 1 2 3 3 3 4 3 2 1 1 2 2 2 2 2 1 1 1 1 1
3 3 3 3 3 3 2 2 4 4 5 4 4 4 3 3 3 3 2 1 1 1 1 1 1 2 2 3 3 3 2 2 2 2 2 2 2 2 2 1 1 1 1
3 2 2 2 2 2 2 1 0 1 3 3 3 2 2 2 3 3 2 1 1 2 2 1 0 1 1 2 2 3 3 2 2 2 2 2 2 2 2 1 1 1 2
3 2 2 2 3 3 3 3 1 1 2 2 2 2 2 2 3 3 2 3 2 3 1 1 1 1 2 2 2 2 3 3 2 2 2 2 2 2 2 2 2 2 2
2 2 2 2 3 3 3 3 3 3 1 0 0 1 1 2 3 3 3 3 1 1 1 1 1 1 2 2 2 2 3 3 2 2 2 2 2 2 2 2 2 2 2
2 2 2 2 2 2 3 3 2 3 2 1 1 0 1 2 2 3 3 2 2 1 1 1 1 1 2 2 2 2 3 2 2 2 2 2 2 2 3 2 2 3 2
1 2 2 2 2 2 2 2 2 3 3 2 2 1 1 1 1 1 1 1 1 1 1 1 1 2 2 2 2 2 3 3 3 3 3 2 2 2 3 3 2 2 2
2 2 3 2 2 2 2 3 3 3 3 2 2 2 3 2 2 2 1 1 1 1 1 1 1 2 2 2 2 3 3 3 3 3 3 2 3 3 3 3 2 2 2
2 2 2 3 2 2 2 2 2 2 2 2 1 1 2 2 1 2 1 1 1 1 1 1 2 2 2 2 2 3 3 3 3 3 3 3 3 2 2 3 2 2 2
3 3 2 2 2 3 2 2 2 2 2 2 2 2 2 2 2 2 2 2 2 2 1 1 2 2 2 3 3 3 3 4 4 3 3 3 3 3 2 2 3 2 2
3 3 3 3 2 2 2 2 2 2 2 2 2 2 2 2 2 2 2 2 2 2 2 2 2 3 4 4 3 4 4 5 5 4 4 3 3 3 2 2 3 3 3
3 3 3 3 3 3 2 2 2 2 2 2 2 2 2 2 2 2 2 2 2 2 2 2 3 3 4 5 5 5 6 6 5 4 4 3 3 3 3 3 2 3 3
2 2 2 2 2 3 3 2 2 2 2 2 2 2 2 2 2 2 2 2 2 2 3 3 4 4 5 5 5 6 6 5 5 5 3 2 2 2 3 2 3 3 3
Wind_Direction
196 198 196 198 194 182 188 200 195 184 179 183 189 187 191 199 200 199 242 234 222 272 284 266 274 274 281 278 248 224 222 200 232 276 272 297 313 334 342 342 342 342 333
194 193 200 196 183 183 196 202 190 184 187 191 185 186 198 201 198 204 234 240 224 248 271 268 275 289 291 278 253 240 237 225 215 259 294 304 298 311 329 332 344 343 334
186 189 193 190 187 194 199 197 189 185 185 186 183 189 201 207 207 218 218 229 230 237 253 254 264 267 278 275 258 244 248 248 227 221 274 281 292 303 334 336 347 355 351
184 186 194 199 197 197 194 189 188 182 181 184 187 192 197 206 205 215 213 217 229 256 271 268 264 250 252 252 247 239 235 238 236 232 266 290 290 294 309 330 349 358 350
184 191 203 202 190 182 182 183 179 179 179 167 153 146 159 186 207 201 189 183 189 266 317 307 292 294 283 268 263 220 193 193 219 248 260 293 302 301 287 274 328 341 341
186 196 196 187 182 181 181 173 164 161 155 142 149 158 168 231 239 212 183 168 186 209 288 310 310 320 328 328 326 321 209 211 224 228 245 236 251 243 246 260 287 349 326
189 192 187 182 184 183 175 162 165 168 159 151 163 164 191 242 233 211 203 156 179 216 249 284 308 332 0 357 354 3 352 327 273 222 226 243 235 231 201 194 215 251 274
186 188 183 177 176 170 165 170 172 168 170 174 180 187 193 248 261 214 176 121 160 229 248 258 261 301 308 253 40 7 339 326 299 270 232 251 243 211 192 194 197 235 314
190 193 190 181 175 172 175 181 179 167 172 181 190 188 189 246 262 269 102 129 136 293 295 281 250 267 303 308 99 338 325 317 324 320 303 299 290 253 163 126 113 103 307
199 197 192 184 181 182 186 186 177 170 177 170 182 196 192 215 238 224 102 144 149 299 324 318 302 291 311 327 209 205 278 290 310 339 342 338 340 342 75 160 178 183 249
193 177 176 180 182 179 174 171 165 159 148 148 156 186 210 215 221 192 146 142 181 211 270 299 304 317 321 323 313 253 262 273 287 312 325 334 340 335 338 326 209 202 218
159 165 172 175 179 167 159 161 157 153 148 149 142 76 348 315 287 260 215 149 164 172 229 280 300 330 339 345 339 328 329 335 333 343 328 309 307 297 285 301 290 263 241
152 163 167 164 167 167 166 164 160 165 167 170 167 180 278 318 300 284 249 136 106 108 200 270 351 3 4 357 352 347 351 355 324 285 280 277 276 268 258 274 315 342 347
162 170 168 161 161 162 169 168 171 180 185 184 188 197 212 236 262 271 282 213 111 72 67 29 18 17 15 355 350 348 339 303 289 270 269 268 275 277 261 241 242 252 307
167 171 172 174 171 168 171 185 190 204 200 194 203 194 192 217 231 222 189 189 181 163 106 50 35 19 11 359 350 342 334 330 315 300 288 285 283 280 269 252 229 239 248
161 171 177 175 171 167 160 110 326 210 201 197 190 183 210 223 212 197 185 156 117 120 102 104 15 344 322 324 322 324 323 315 303 292 290 285 277 282 287 284 256 236 242
173 180 182 181 178 181 177 169 156 30 68 136 152 163 172 177 170 163 152 135 122 122 116 187 242 266 293 299 299 305 307 305 298 293 292 302 297 282 274 271 266 263 263
161 172 178 190 187 184 184 184 178 165 152 30 217 169 165 155 141 130 120 108 109 114 177 222 245 261 279 285 293 304 307 313 317 307 300 304 312 304 287 268 259 257 259
177 180 179 174 172 174 172 172 174 173 171 168 127 136 145 134 129 128 126 129 166 206 240 256 273 282 285 287 290 296 296 299 304 305 302 297 304 305 292 277 269 268 268
191 197 163 147 148 157 168 175 181 182 181 179 185 185 149 105 122 165 170 160 188 220 236 264 287 295 290 290 294 298 301 305 307 303 300 299 296 297 295 282 267 261 266
183 185 161 144 165 176 182 187 184 182 182 184 195 191 161 164 181 198 207 211 217 236 253 269 279 287 293 303 308 308 306 304 298 296 297 300 297 293 300 295 277 269 271
180 176 174 175 175 174 172 168 164 169 173 170 167 160 152 150 186 198 213 234 246 245 238 247 263 267 272 274 286 295 296 297 303 306 303 298 295 299 303 299 286 279 274
161 161 157 158 159 156 144 146 157 167 174 181 174 173 190 208 212 217 237 251 253 261 266 250 263 282 283 274 264 265 277 282 284 284 288 291 295 291 284 287 285 269 261
162 164 164 162 155 157 158 159 163 173 185 187 186 190 201 213 221 239 252 261 262 266 270 262 261 268 280 289 284 278 275 279 278 266 266 273 284 289 287 285 285 276 263
158 164 167 167 165 165 165 167 169 174 179 189 200 210 210 219 241 252 252 250 260 263 271 274 278 278 281 287 291 291 293 294 296 290 268 260 270 277 281 277 280 286 277
150 152 156 159 161 164 171 182 191 192 194 205 213 215 219 229 244 253 250 249 263 269 277 286 292 291 290 286 286 290 292 292 295 298 291 267 269 276 282 277 280 282 273
Height
1511 1512 1514 1515 1516 1517 1518 1519 1520 1520 1521 1521 1521 1521 1521 1521 1521 1520 1520 1519 1519 1518 1518 1517 1516 1516 1515 1514 1513 1512 1512 1511 1509 1508 1508 1507 1506 1506 1506 1505 1504 1503 1503
1508 1509 1510 1511 1512 1513 1515 1516 1517 1517 1518 1518 1518 1518 1518 1518 1518 1518 1518 1517 1516 1516 1515 1515 1514 1513 1512 1511 1510 1509 1509 1508 1507 1506 1505 1504 1504 1503 1503 1502 1501 1501 1500
1504 1506 1507 1508 1509 1510 1511 1512 1513 1514 1515 1515 1515 1515 1515 1515 1515 1515 1515 1515 1514 1513 1513 1512 1511 1510 1509 1508 1507 1507 1506 1505 1505 1503 1502 1502 1501 1501 1500 1500 1499 1498 1498
1501 1503 1504 1505 1506 1507 1508 1509 1510 1511 1511 1512 1512 1512 1513 1513 1513 1513 1513 1512 1511 1511 1510 1509 1509 1508 1507 1506 1505 1504 1503 1502 1502 1501 1500 1499 1499 1498 1498 1497 1496 1495 1495
1498 1499 1500 1502 1503 1504 1505 1506 1507 1507 1508 1508 1509 1509 1510 1510 1510 1510 1509 1509 1509 1508 1507 1507 1506 1505 1504 1503 1502 1501 1500 1500 1499 1498 1497 1497 1496 1496 1495 1495 1494 1493 1492
1495 1496 1497 1499 1500 1501 1502 1503 1503 1504 1505 1505 1505 1506 1506 1507 1507 1507 1507 1506 1505 1505 1504 1503 1503 1502 1501 1500 1500 1499 1498 1497 1496 1496 1495 1494 1494 1494 1493 1493 1492 1490 1489
1492 1493 1494 1495 1496 1497 1498 1499 1499 1500 1501 1501 1502 1502 1503 1503 1503 1503 1503 1502 1502 1501 1501 1500 1499 1498 1498 1497 1496 1495 1495 1494 1494 1494 1492 1492 1491 1491 1491 1490 1490 1489 1488
1488 1489 1490 1492 1493 1494 1494 1495 1496 1497 1497 1497 1498 1498 1499 1499 1499 1499 1499 1499 1498 1498 1498 1497 1496 1496 1495 1494 1493 1492 1492 1491 1491 1490 1489 1489 1489 1489 1489 1488 1488 1487 1487
1485 1486 1487 1488 1489 1490 1491 1491 1492 1493 1493 1494 1495 1495 1495 1495 1496 1496 1496 1495 1495 1495 1494 1494 1493 1493 1492 1491 1490 1489 1488 1488 1488 1487 1487 1487 1486 1486 1486 1486 1485 1485 1483
1482 1483 1484 1485 1486 1487 1487 1488 1489 1490 1490 1491 1491 1492 1492 1492 1492 1492 1492 1492 1491 1491 1491 1491 1490 1490 1489 1488 1487 1486 1485 1485 1484 1484 1484 1483 1483 1483 1483 1483 1482 1482 1481
1479 1480 1481 1482 1483 1484 1484 1485 1486 1486 1487 1487 1488 1488 1489 1489 1489 1489 1489 1489 1488 1488 1487 1487 1487 1486 1486 1485 1484 1483 1482 1482 1481 1481 1480 1480 1480 1479 1479 1480 1480 1480 1479
1476 1477 1478 1479 1480 1480 1481 1482 1483 1483 1483 1484 1484 1485 1485 1485 1486 1485 1485 1485 1485 1485 1484 1484 1484 1483 1482 1482 1481 1480 1479 1479 1478 1477 1476 1476 1476 1476 1475 1476 1476 1476 1476
1473 1474 1475 1476 1476 1477 1478 1478 1479 1480 1480 1480 1480 1481 1481 1482 1482 1482 1482 1482 1481 1481 1481 1481 1480 1480 1479 1478 1478 1477 1476 1476 1475 1474 1473 1472 1472 1472 1472 1472 1472 1472 1473
1470 1471 1472 1473 1473 1474 1475 1475 1476 1476 1477 1477 1477 1477 1478 1478 1478 1478 1478 1478 1478 1478 1478 1477 1477 1476 1476 1475 1475 1474 1473 1473 1472 1471 1470 1469 1469 1469 1468 1468 1468 1468 1468
1467 1468 1468 1469 1470 1471 1471 1472 1473 1473 1474 1474 1474 1474 1474 1474 1475 1475 1475 1475 1475 1475 1474 1474 1473 1472 1472 1472 1471 1470 1470 1469 1468 1468 1467 1466 1465 1465 1465 1465 1464 1464 1464
1464 1464 1465 1465 1466 1467 1468 1469 1469 1470 1470 1471 1471 1471 1471 1471 1472 1472 1472 1472 1472 1471 1471 1470 1469 1469 1468 1468 1468 1467 1467 1466 1465 1465 1464 1463 1462 1462 1461 1461 1461 1461 1461
1461 1462 1462 1462 1463 1464 1465 1465 1465 1466 1467 1467 1467 1468 1468 1468 1469 1469 1469 1469 1468 1468 1467 1467 1467 1466 1466 1465 1465 1464 1464 1463 1462 1462 1461 1460 1459 1459 1458 1458 1458 1457 1457
1459 1460 1460 1460 1460 1461 1462 1462 1462 1462 1462 1463 1464 1464 1465 1465 1465 1466 1466 1465 1465 1465 1465 1464 1464 1464 1463 1463 1462 1461 1461 1460 1459 1458 1458 1457 1456 1456 1455 1455 1454 1454 1454
1456 1456 1457 1457 1457 1458 1458 1459 1459 1460 1460 1460 1460 1461 1462 1462 1462 1463 1462 1462 1462 1462 1462 1461 1461 1461 1460 1460 1459 1459 1458 1457 1456 1455 1455 1454 1453 1453 1452 1451 1451 1451 1451
1453 1454 1454 1454 1454 1454 1455 1456 1456 1457 1457 1457 1457 1458 1459 1459 1459 1459 1459 1459 1459 1459 1459 1459 1459 1458 1458 1457 1456 1456 1455 1454 1453 1452 1451 1451 1450 1450 1449 1449 1448 1448 1447
1450 1450 1451 1451 1451 1451 1452 1453 1453 1454 1454 1454 1455 1455 1456 1456 1456 1456 1456 1456 1456 1456 1456 1456 1456 1456 1455 1454 1454 1453 1452 1451 1450 1449 1448 1448 1447 1447 1446 1446 1445 1445 1444
1447 1447 1447 1448 1448 1449 1449 1450 1451 1451 1451 1451 1452 1453 1453 1454 1454 1454 1454 1454 1454 1454 1454 1454 1454 1453 1452 1452 1451 1450 1449 1448 1447 1446 1446 1445 1444 1444 1443 1443 1442 1442 1442
1444 1444 1444 1445 1446 1446 1447 1448 1448 1449 1449 1449 1450 1450 1451 1451 1451 1451 1451 1451 1451 1451 1451 1451 1451 1450 1449 1449 1448 1447 1446 1445 1445 1444 1443 1442 1441 1441 1440 1440 1439 1439 1439
1441 1441 1442 1442 1443 1444 1444 1445 1446 1447 1447 1447 1447 1448 1448 1448 1449 1449 1449 1449 1448 1448 1448 1448 1448 1447 1447 1446 1445 1444 1443 1442 1442 1441 1440 1439 1438 1438 1437 1437 1436 1436 1436
1438 1439 1440 1440 1441 1442 1442 1443 1444 1444 1445 1445 1445 1446 1446 1446 1446 1446 1446 1446 1445 1445 1445 1445 1444 1444 1443 1443 1442 1441 1440 1439 1438 1437 1437 1436 1435 1435 1434 1434 1434 1433 1433
1436 1436 1437 1438 1439 1439 1440 1441 1441 1442 1442 1442 1443 1443 1443 1443 1443 1443 1443 1442 1442 1442 1442 1441 1441 1441 1440 1440 1439 1438 1437 1436 1435 1434 1433 1433 1432 1431 1431 1431 1431 1431 1430